Regional Weather Roundup
Issued by NWS Cleveland, OH

Home | Current Version | Previous Version | Text Only | Print | Product List | Glossary Off
Versions: 1 2 3 4 5 6 7 8 9 10 11 12 13 14 15 16 17 18 19 20 21 22 23 24 25 26 27 28 29 30 31 32 33 34 35 36 37 38 39 40 41 42 43 44 45 46 47 48 49 50

000
ASUS41 KCLE 020102
RWRCLE
OHIO REGIONAL WEATHER ROUNDUP
NATIONAL WEATHER SERVICE CLEVELAND, OH
900 PM EDT SAT AUG 01 2015

NOTE: "FAIR" INDICATES FEW OR NO CLOUDS BELOW 12,000 FEET WITH NO
SIGNIFICANT WEATHER AND/OR OBSTRUCTIONS TO VISIBILITY.

OHZ001>008-015>018-024>027-034-035-043-044-020200-
   NORTHWEST OHIO

CITY           SKY/WX    TMP DP  RH WIND       PRES   REMARKS
DEFIANCE       PTCLDY    75  55  49 CALM      29.93R
FINDLAY        CLEAR     73  56  54 W7        29.92R
TOLEDO EXPRESS CLEAR     74  55  51 W8        29.91R
TOLEDO EXEC    CLEAR     76  53  44 W9        29.91R
LIMA           CLOUDY    75  55  49 W7        29.95R
$$

OHZ009>014-019>023-028>033-038-089-020200-
   NORTHEAST OHIO

CITY           SKY/WX    TMP DP  RH WIND       PRES   REMARKS
CLE-HOPKINS    CLEAR     73  53  49 SW5       29.92S
CLE-LAKEFRONT  CLEAR     77  60  55 W9        29.88S
CUY CO. ARPT   PTCLDY   N/A N/A N/A W9        29.91S
LORAIN-ELYRIA  PTCLDY    70  56  61 SW6       29.91S
ASHTABULA      CLEAR     68  57  68 CALM      29.91S
AKRON-CANTON   PTCLDY    73  54  51 SW3       29.93S
WOOSTER        CLEAR     65  61  87 W3        29.94S
MANSFIELD      CLEAR     72  54  53 SW3       29.95R
YOUNGSTOWN     PTCLDY    65  56  72 CALM      29.93R
$$

OHZ042-051>053-060>062-070>072-077>081-020200-
  SOUTHWEST OHIO

CITY           SKY/WX    TMP DP  RH WIND       PRES   REMARKS
CINC-COVINGTON PTCLDY    76  57  51 W5        29.99R
CINC-LUNKEN    PTCLDY    76  57  51 W5        29.97S
HAMILTON       PTCLDY    69  62  78 CALM      29.98R
DAYTON         PTCLDY    73  59  61 W5        29.98R
WRIGHT-PAT AFB PTCLDY    76  55  48 W2        29.96S
DAYTON GENERAL CLEAR     75  56  51 CALM      29.97R
WILMINGTON     CLEAR     71  58  63 VRB3      29.98R
$$

OHZ036-037-039>041-045>050-054>059-063>069-073>076-082>088-020200-
  CENTRAL AND SOUTHEAST OHIO

CITY           SKY/WX    TMP DP  RH WIND       PRES   REMARKS
COLUMBUS       CLEAR     74  55  51 W8        29.94R
OSU AIRPORT    CLEAR     72  57  59 W6        29.95R
BOLTON FIELD   NOT AVBL
RICKENBACK AFB CLEAR     75  57  53 W6        29.95R
NEWARK         CLEAR     71  59  65 W3        29.94S
MARION         CLEAR     75  54  47 W3        29.94S
LANCASTER      CLEAR     68  59  73 SW5       29.95F
ZANESVILLE     CLEAR     74  57  55 SW3       29.94S
NEW PHILLY     CLEAR     68  61  78 CALM      29.94R
$$


USA.gov is the U.S. government's official web portal to all federal, state and local government web resources and services.